Kingston, Jamaica

5:53 PM EST on August 18, 2017 (GMT -0500)
Norman Manley International

Weather History for MKJP - October, 2011

Change the Weather History Date:

Saturday, October 8, 2011

  Actual Average Record
Temperature  
Mean Temperature 81 °F -  
Max Temperature 84 °F 86 °F 109 °F (2014)
Min Temperature 78 °F 77 °F 73 °F (2007)
Cooling Degree Days 16    
Growing Degree Days 31 (Base 50)    
Moisture  
Dew Point 68 °F    
Average Humidity 63    
Maximum Humidity 70    
Minimum Humidity 47    
Precipitation  
Precipitation 0.00 in - - ()
Sea Level Pressure  
Sea Level Pressure 29.82 in    
Wind  
Wind Speed 6 mph ()    
Max Wind Speed 17 mph    
Max Gust Speed -    
Visibility 6.0 miles    
Events Rain , Thunderstorm    
Averages and records for this station are not official NWS values.
T = Trace of Precipitation, MM = Missing Value Source: Averaged Metar Reports

Daily Weather History Graph

Daily Weather History Graph

Search for Another Location

Airport or City:

Trip Planner

Search our weather history database for the weather conditions in past years. The results will help you decide how hot, cold, wet, or windy it might be!

Date:

Astronomy

Oct. 08, 2011 Rise Set
Actual Time 5:58 AM EST 5:50 PM EST
Civil Twilight 5:37 AM EST 6:12 PM EST
Nautical Twilight 5:11 AM EST 6:37 PM EST
Astronomical Twilight 4:46 AM EST 7:02 PM EST
Moon 3:41 PM EST (10/8) 3:07 AM EST (10/8)
Length of Visible Light 12h 35m
Length of Day
11h 51m
Waxing Gibbous, 90% of the Moon is Illuminated
Oct 8
Waxing Gibbous
Oct 11
Full
Oct 19
Last Quarter
Oct 26
New
Nov 2
First Quarter

Hourly Weather History & Observations

Time (EST) Temp. Heat Index Dew Point Humidity Pressure Visibility Wind Dir Wind Speed Gust Speed Precip Events Conditions
12:00 AM 78.8 °F - 68.0 °F 69% 29.83 in 6.2 mi West 5.8 mph - N/A Rain Light Rain Showers
1:00 AM 78 °F - 69 °F 66% 29.84 in 4 mi North 5.8 mph - -   Partly Cloudy
1:00 AM 78.8 °F - 68.0 °F 69% 29.83 in 6.2 mi North 5.8 mph - N/A   Scattered Clouds
2:00 AM 78.8 °F - 68.0 °F 69% 29.80 in 6.2 mi NW 2.3 mph - N/A   Mostly Cloudy
3:00 AM 78.8 °F - 68.0 °F 69% 29.80 in 6.2 mi NW 2.3 mph - N/A   Mostly Cloudy
4:00 AM 78.8 °F - 68.0 °F 69% 29.77 in 6.2 mi NW 2.3 mph - N/A   Scattered Clouds
5:00 AM 78.8 °F - 66.2 °F 65% 29.80 in 6.2 mi NE 4.6 mph - N/A   Scattered Clouds
6:00 AM 78.8 °F - 68.0 °F 69% 29.80 in 6.2 mi ESE 10.4 mph - N/A   Partly Cloudy
7:00 AM 79 °F - 67 °F 58% 29.84 in 4 mi NW 6.9 mph - -   Haze
7:00 AM 78.8 °F - 66.2 °F 65% 29.83 in 6.2 mi NW 6.9 mph - N/A   Scattered Clouds
8:00 AM 80.6 °F 83.2 °F 68.0 °F 65% 29.86 in 6.2 mi NE 3.5 mph - N/A   Mostly Cloudy
9:00 AM 82.4 °F 85.4 °F 68.0 °F 62% 29.86 in 6.2 mi ESE 9.2 mph - N/A   Scattered Clouds
10:00 AM 84 °F - 67 °F 47% 29.88 in 4 mi South 2.3 mph - -   Smoke
10:00 AM 84.2 °F 86.6 °F 66.2 °F 55% 29.86 in 6.2 mi South 2.3 mph - N/A   Mostly Cloudy
11:00 AM 84.2 °F 87.3 °F 68.0 °F 58% 29.86 in 6.2 mi ESE 10.4 mph - N/A   Mostly Cloudy
12:00 PM 82.4 °F 86.3 °F 69.8 °F 66% 29.83 in 6.2 mi SE 10.4 mph - N/A   Mostly Cloudy
1:00 PM 84 °F - 70 °F 55% 29.82 in 4 mi SE 8.1 mph - -   Haze
1:00 PM 84.2 °F 88.4 °F 69.8 °F 62% 29.80 in 6.2 mi SE 8.1 mph - N/A   Mostly Cloudy
2:00 PM 84.2 °F 88.4 °F 69.8 °F 62% 29.80 in 6.2 mi SE 12.7 mph - N/A   Mostly Cloudy
3:00 PM 80.6 °F 83.2 °F 68.0 °F 65% 29.80 in 6.2 mi SE 1.2 mph - N/A   Mostly Cloudy
4:00 PM 81 °F - 69 °F 58% 29.78 in 4 mi ESE 10.4 mph - -   Haze
4:00 PM 80.6 °F 83.2 °F 68.0 °F 65% 29.77 in 6.2 mi ESE 10.4 mph - N/A   Mostly Cloudy
5:00 PM 82.4 °F 85.4 °F 68.0 °F 62% 29.77 in 6.2 mi ESE 12.7 mph - N/A   Mostly Cloudy
6:00 PM 80.6 °F 83.9 °F 69.8 °F 70% 29.74 in 6.2 mi SE 17.3 mph - N/A Thunderstorm Mostly Cloudy
7:00 PM 80.6 °F 82.7 °F 66.2 °F 61% 29.80 in 6.2 mi SE 12.7 mph - N/A Thunderstorm Mostly Cloudy
8:00 PM 80.6 °F 82.7 °F 66.2 °F 61% 29.83 in 6.2 mi East 5.8 mph - N/A Thunderstorm Mostly Cloudy
9:00 PM 78.8 °F - 68.0 °F 69% 29.83 in 6.2 mi East 11.5 mph - N/A   Mostly Cloudy
10:00 PM 80 °F - 67 °F 56% 29.85 in 12 mi ESE 13.8 mph - -   Scattered Clouds
10:00 PM 80.6 °F 82.7 °F 66.2 °F 61% 29.83 in 6.2 mi East 13.8 mph - N/A   Mostly Cloudy
11:00 PM 78.8 °F - 66.2 °F 65% 29.83 in 6.2 mi ESE 16.1 mph - N/A Thunderstorm Mostly Cloudy